Hourly Data Report for October 01, 2014

All times are specified in Local Standard Time (LST). Add 1 hour to adjust for Daylight Saving Time where and when it is observed.

POND INLET A
NUNAVUT

72°41'22.000" N
77°58'08.000" W
61.60 m
2403206
71095
YIO

Download Data

Hourly Data (October 2014)
Hourly Data Report for October 1, 2014
Temp Definition
°C
Dew Point Temp Definition
°C
Rel Hum Definition
%
Wind Dir Definition
10's deg

Wind Spd Definition
km/h
Visibility Definition
km
Stn Press Definition
kPa
Hmdx Definition


Wind Chill Definition


Weather Definition


TIME
00:00 Legend Double Dagger -8.5 -11.2 81 21 21 16.1 99.86   -16 LegendNANA
01:00 Legend Double Dagger -9.0 -11.4 83 17 21 16.1 99.90   -17 LegendNANA
02:00 Legend Double Dagger -10.8 -12.6 87 16 22 16.1 99.94   -19 LegendNANA
03:00 Legend Double Dagger -8.0 -9.9 86 15 17 16.1 100.00   -15 LegendNANA
04:00 Legend Double Dagger -6.9 -8.9 86 17 15 16.1 100.04   -13 Snow
05:00 Legend Double Dagger -7.2 -8.9 88 15 18 16.1 100.06   -14 Snow
06:00 Legend Double Dagger -6.8 -8.8 86 15 17 16.1 100.08   -13 Snow
07:00 Legend Double Dagger -6.9 -8.7 87 15 18 16.1 100.08   -14 Snow
08:00 Legend Double Dagger -6.7 -8.6 87 16 13 16.1 100.12   -12 LegendNANA
09:00 Legend Double Dagger -6.1 -8.5 83 18 8 16.1 100.13   -10 LegendNANA
10:00 Legend Double Dagger -6.3 -8.4 85 16 11 16.1 100.16   -11 LegendNANA
11:00 Legend Double Dagger -6.0 -8.1 85 18 13 16.1 100.18   -11 LegendNANA
12:00 Legend Double Dagger -5.7 -7.7 86 18 9 16.1 100.16   -10 LegendNANA
13:00 Legend Double Dagger -5.6 -8.4 81 21 11 16.1 100.16   -10 LegendNANA
14:00 Legend Double Dagger -5.8 -7.9 85 18 9 16.1 100.18   -10 LegendNANA
15:00 Legend Double Dagger -5.8 -8.5 81 24 15 16.1 100.17   -12 Snow
16:00 Legend Double Dagger -6.3 -8.7 83 18 15 16.1 100.17   -12 Snow
17:00 Legend Double Dagger -7.0 -9.7 81 17 21 16.1 100.16   -14 Snow
18:00 Legend Double Dagger -7.0 -9.9 80 18 15 16.1 100.16   -13 LegendNANA
19:00 Legend Double Dagger -5.3 -8.4 79 27 21 16.1 100.14   -12 LegendNANA
20:00 Legend Double Dagger -6.4 -9.3 80 18 18 16.1 100.13   -13 LegendNANA
21:00 Legend Double Dagger -6.8 -9.5 81 19 21 16.1 100.10   -14 Snow
22:00 Legend Double Dagger -7.0 -9.1 85 18 21 16.1 100.07   -14 Snow
23:00 Legend Double Dagger -6.8 -8.7 86 21 13 4.8 100.09   -12 Snow

Notes on Data Quality.

Legend

  • E = Estimated
  • M = Missing
  • NA = Not Available
  • ‡ = Partner data that is not subject to review by the National Climate Archives
Date modified: